When you browse on this site, cookies collect data to enhance your experience and personalize the content and advertising you see.
Visit our Privacy Policy to learn more. By continuing to use the site, you agree to this use of cookies and data.
EN

Hourly Weather Vasilkovka

Today, 5 July, Sunday

Time Temperature Precipitation Wind Pressure Humidity
00:00 +25°C° 0 mm 2 mps 748 mmHg 51%
01:00 +25°C° 0 mm 2 mps 748 mmHg 52%
02:00 +24°C° 0 mm 2 mps 748 mmHg 52%
03:00 +24°C° 0 mm 2 mps 747 mmHg 55%
04:00 +24°C° 0 mm 2 mps 747 mmHg 58%
05:00 +24°C° 0 mm 1 mps 747 mmHg 61%
06:00 +25°C° 0 mm 2 mps 747 mmHg 58%
07:00 +27°C° 0 mm 2 mps 747 mmHg 54%
08:00 +29°C° 0 mm 3 mps 747 mmHg 50%
09:00 +30°C° 0 mm 3 mps 747 mmHg 47%
10:00 +31°C° 0 mm 3 mps 747 mmHg 44%
11:00 +34°C° 0 mm 3 mps 747 mmHg 41%
12:00 +34°C° 0 mm 2 mps 747 mmHg 40%
13:00 +35°C° 0 mm 2 mps 747 mmHg 38%
14:00 +35°C° 0 mm 2 mps 747 mmHg 37%
15:00 +34°C° 0 mm 1 mps 747 mmHg 38%
16:00 +34°C° 0 mm 1 mps 746 mmHg 39%
17:00 +34°C° 0 mm 1 mps 746 mmHg 40%
18:00 +32°C° 0 mm 1 mps 747 mmHg 45%
19:00 +30°C° 0 mm 1 mps 747 mmHg 50%
20:00 +28°C° 0 mm 2 mps 747 mmHg 56%
21:00 +27°C° 0 mm 2 mps 747 mmHg 61%
22:00 +26°C° 0 mm 2 mps 747 mmHg 66%
23:00 +25°C° 0 mm 2 mps 747 mmHg 71%

Tomorrow, 6 July, Monday

Time Temperature Precipitation Wind Pressure Humidity
00:00 +24°C° 0 mm 2 mps 747 mmHg 73%
01:00 +23°C° 0 mm 2 mps 747 mmHg 76%
02:00 +23°C° 0 mm 2 mps 747 mmHg 78%
03:00 +22°C° 0 mm 3 mps 747 mmHg 79%
04:00 +22°C° 0 mm 3 mps 747 mmHg 80%
05:00 +22°C° 0 mm 3 mps 747 mmHg 81%
06:00 +25°C° 0 mm 3 mps 747 mmHg 75%
07:00 +26°C° 0 mm 3 mps 747 mmHg 69%
08:00 +28°C° 0 mm 3 mps 747 mmHg 63%
09:00 +30°C° 0 mm 3 mps 747 mmHg 56%
10:00 +33°C° 0 mm 3 mps 747 mmHg 49%
11:00 +34°C° 0 mm 3 mps 747 mmHg 43%
12:00 +35°C° 0 mm 3 mps 747 mmHg 40%
13:00 +36°C° 0 mm 3 mps 746 mmHg 37%
14:00 +36°C° 0 mm 3 mps 746 mmHg 34%
15:00 +36°C° 0 mm 3 mps 746 mmHg 37%
16:00 +35°C° 0 mm 3 mps 745 mmHg 40%
17:00 +35°C° 0 mm 2 mps 745 mmHg 43%
18:00 +33°C° 0 mm 3 mps 745 mmHg 46%
19:00 +29°C° 0 mm 3 mps 745 mmHg 48%
20:00 +27°C° 0 mm 3 mps 745 mmHg 51%
21:00 +26°C° 0 mm 3 mps 745 mmHg 52%
22:00 +26°C° 0 mm 3 mps 745 mmHg 52%
23:00 +25°C° 0 mm 3 mps 745 mmHg 53%

Day after tomorrow, 7 July, Tuesday

Time Temperature Precipitation Wind Pressure Humidity
00:00 +24°C° 0 mm 3 mps 744 mmHg 55%
01:00 +24°C° 0 mm 3 mps 744 mmHg 56%
02:00 +22°C° 0 mm 3 mps 744 mmHg 58%
03:00 +22°C° 0 mm 3 mps 744 mmHg 61%
04:00 +22°C° 0 mm 3 mps 744 mmHg 63%
05:00 +22°C° 0 mm 3 mps 743 mmHg 65%
06:00 +25°C° 0 mm 3 mps 743 mmHg 60%
07:00 +27°C° 0 mm 3 mps 743 mmHg 55%
08:00 +28°C° 0 mm 3 mps 743 mmHg 50%
09:00 +30°C° 0 mm 3 mps 743 mmHg 46%
10:00 +33°C° 0 mm 3 mps 743 mmHg 43%
11:00 +34°C° 0 mm 3 mps 743 mmHg 40%
12:00 +35°C° 0 mm 3 mps 743 mmHg 39%
13:00 +36°C° 0 mm 3 mps 743 mmHg 37%
14:00 +37°C° 0 mm 3 mps 743 mmHg 36%
15:00 +37°C° 0 mm 3 mps 743 mmHg 37%
16:00 +36°C° 0 mm 2 mps 743 mmHg 39%
17:00 +36°C° 0 mm 2 mps 743 mmHg 40%
18:00 +33°C° 0 mm 1 mps 743 mmHg 43%
19:00 +31°C° 0 mm 1 mps 743 mmHg 46%
20:00 +28°C° 0 mm 1 mps 743 mmHg 48%
21:00 +28°C° 0 mm 1 mps 743 mmHg 50%
22:00 +28°C° 0 mm 1 mps 743 mmHg 51%
23:00 +27°C° 0 mm 1 mps 743 mmHg 52%

8 July, Wednesday

Time Temperature Precipitation Wind Pressure Humidity
00:00 +27°C° 0 mm 1 mps 743 mmHg 54%
01:00 +26°C° 0 mm 2 mps 743 mmHg 55%
02:00 +26°C° 0 mm 2 mps 743 mmHg 56%
03:00 +26°C° 0 mm 2 mps 743 mmHg 59%
04:00 +25°C° 0 mm 2 mps 743 mmHg 62%
05:00 +25°C° 0 mm 2 mps 743 mmHg 65%
06:00 +27°C° 0 mm 2 mps 743 mmHg 61%
07:00 +28°C° 0 mm 2 mps 743 mmHg 57%
08:00 +30°C° 0 mm 3 mps 743 mmHg 54%
09:00 +31°C° 0 mm 3 mps 743 mmHg 50%
10:00 +33°C° 0 mm 3 mps 743 mmHg 47%
11:00 +34°C° 0 mm 4 mps 743 mmHg 43%
12:00 +35°C° 0 mm 3 mps 743 mmHg 42%
13:00 +36°C° 0 mm 3 mps 743 mmHg 40%
14:00 +36°C° 0 mm 3 mps 743 mmHg 39%
15:00 +36°C° 0 mm 2 mps 743 mmHg 41%
16:00 +35°C° 0 mm 2 mps 743 mmHg 44%
17:00 +34°C° 0 mm 1 mps 743 mmHg 47%
18:00 +32°C° 0 mm 1 mps 743 mmHg 49%
19:00 +31°C° 0 mm 1 mps 743 mmHg 52%
20:00 +29°C° 0 mm 1 mps 743 mmHg 54%
21:00 +28°C° 0.3 mm 2 mps 743 mmHg 59%
22:00 +27°C° 0.3 mm 2 mps 743 mmHg 64%
23:00 +26°C° 0.3 mm 2 mps 743 mmHg 69%

9 July, Thursday

Time Temperature Precipitation Wind Pressure Humidity
00:00 +25°C° 0 mm 2 mps 743 mmHg 72%
01:00 +25°C° 0 mm 2 mps 743 mmHg 74%
02:00 +24°C° 0 mm 2 mps 743 mmHg 77%
03:00 +24°C° 0 mm 2 mps 743 mmHg 79%
04:00 +24°C° 0 mm 2 mps 743 mmHg 81%
05:00 +24°C° 0 mm 2 mps 743 mmHg 83%
06:00 +25°C° 0 mm 3 mps 743 mmHg 79%
07:00 +26°C° 0 mm 4 mps 743 mmHg 76%
08:00 +27°C° 0 mm 5 mps 743 mmHg 73%
09:00 +27°C° 0 mm 5 mps 744 mmHg 71%
10:00 +28°C° 0 mm 5 mps 744 mmHg 69%
11:00 +29°C° 0 mm 5 mps 744 mmHg 67%
12:00 +29°C° 0 mm 6 mps 744 mmHg 67%
13:00 +29°C° 0 mm 7 mps 744 mmHg 68%
14:00 +29°C° 0 mm 7 mps 744 mmHg 68%
15:00 +28°C° 0 mm 8 mps 744 mmHg 69%
16:00 +28°C° 0 mm 8 mps 744 mmHg 69%
17:00 +27°C° 0 mm 8 mps 744 mmHg 70%
18:00 +26°C° 0 mm 7 mps 745 mmHg 71%
19:00 +23°C° 0 mm 7 mps 745 mmHg 73%
20:00 +22°C° 0 mm 6 mps 746 mmHg 75%
21:00 +21°C° 0 mm 6 mps 746 mmHg 74%
22:00 +21°C° 0 mm 6 mps 746 mmHg 74%
23:00 +20°C° 0 mm 6 mps 746 mmHg 74%

10 July, Friday

Time Temperature Precipitation Wind Pressure Humidity
00:00 +19°C° 0 mm 6 mps 747 mmHg 74%
01:00 +19°C° 0 mm 6 mps 747 mmHg 73%
02:00 +17°C° 0 mm 6 mps 747 mmHg 73%
03:00 +17°C° 0 mm 5 mps 747 mmHg 75%
04:00 +16°C° 0 mm 5 mps 748 mmHg 76%
05:00 +16°C° 0 mm 5 mps 748 mmHg 78%
06:00 +19°C° 0 mm 5 mps 748 mmHg 73%
07:00 +20°C° 0 mm 6 mps 749 mmHg 68%
08:00 +22°C° 0 mm 6 mps 749 mmHg 64%
09:00 +23°C° 0 mm 6 mps 749 mmHg 59%
10:00 +24°C° 0 mm 6 mps 749 mmHg 54%
11:00 +26°C° 0 mm 6 mps 750 mmHg 49%
12:00 +26°C° 0 mm 6 mps 750 mmHg 47%
13:00 +26°C° 0 mm 6 mps 750 mmHg 46%
14:00 +26°C° 0 mm 6 mps 750 mmHg 44%
15:00 +26°C° 0 mm 6 mps 750 mmHg 46%
16:00 +24°C° 0 mm 6 mps 750 mmHg 48%
17:00 +24°C° 0 mm 6 mps 750 mmHg 50%
18:00 +22°C° 0 mm 5 mps 750 mmHg 58%
19:00 +20°C° 0 mm 4 mps 751 mmHg 65%
20:00 +18°C° 0 mm 3 mps 751 mmHg 73%
21:00 +17°C° 0 mm 3 mps 751 mmHg 77%
22:00 +17°C° 0 mm 3 mps 752 mmHg 81%
23:00 +16°C° 0 mm 3 mps 752 mmHg 86%
Show more